Tracking 19717 objects as of 25-Jun-2019
HD Live streaming from Space Station
objects crossing your sky now

ANIK F2

Track ANIK F2 now!
ANIK F2 is classified as:


NORAD ID: 28378
Int'l Code: 2004-027A
Perigee: 35,793.3 km
Apogee: 35,794.8 km
Inclination: 0.0 °
Period: 1,436.1 minutes
Semi major axis: 42165 km
RCS: 28.1838 m2 (large)
Launch date: July 18, 2004
Source: Canada (CA)
Launch site: FRENCH GUIANA (FRGUI)

24 30W C-band, 40 127W Ku-band, 50 90W transponders for broadband and telemedicine to northern US states and Canada
aabbcc
Your satellite tracking list
Your tracking list is empty




NASA's NSSDC Master Catalog

Two Line Element Set (TLE):
1 28378U 04027A   19175.60714007 -.00000047  00000-0  00000+0 0  9990
2 28378   0.0171 313.7433 0000177 118.6382 307.5733  1.00270601 54797
Source of the keplerian elements: AFSPC